| time (UTC) | temp F | wind direction | speed MPH | gust MPH | rain 1hr in | rain 24hr in | rain mn in | humidity % | barometer mb |
| 20260506062047 | 40 | 25 | 2.0 | 7.0 | 0.02 | 0.02 | 0.02 | 87 | 1017.6 |
| 20260506061553 | 40 | 63 | 2.0 | 6.0 | 0.02 | 0.02 | 0.02 | 87 | 1017.6 |
| 20260506061048 | 40 | 63 | 1.0 | 8.0 | 0.01 | 0.01 | 0.01 | 86 | 1017.5 |
| 20260506060548 | 40 | 0 | 1.0 | 8.0 | 0.01 | 0.01 | 0.01 | 86 | 1017.4 |
| 20260506051050 | 41 | 23 | 1.0 | 8.0 | 0.00 | 0.00 | 0.00 | 81 | 1015.9 |
| 20260506050548 | 41 | 64 | 2.0 | 8.0 | 0.00 | 0.00 | 0.00 | 81 | 1016.0 |
| 20260506045048 | 41 | 41 | 2.0 | 6.0 | 0.00 | 0.00 | 0.00 | 80 | 1015.6 |
| 20260506044553 | 41 | 62 | 3.0 | 8.0 | 0.00 | 0.00 | 0.00 | 80 | 1015.8 |
| 20260506044047 | 41 | 77 | 1.0 | 10.0 | 0.00 | 0.00 | 0.00 | 80 | 1015.6 |
| 20260506043547 | 41 | 93 | 1.0 | 11.0 | 0.00 | 0.00 | 0.00 | 80 | 1015.6 |
| 20260506043050 | 41 | 142 | 3.0 | 11.0 | 0.00 | 0.00 | 0.00 | 80 | 1015.6 |
| 20260506042548 | 41 | 14 | 3.0 | 11.0 | 0.00 | 0.00 | 0.00 | 79 | 1015.4 |
| 20260506042047 | 42 | 74 | 2.0 | 11.0 | 0.00 | 0.00 | 0.00 | 79 | 1015.5 |
| 20260506041551 | 42 | 1 | 4.0 | 10.0 | 0.00 | 0.00 | 0.00 | 79 | 1015.7 |
| 20260506041044 | 42 | 45 | 4.0 | 9.0 | 0.00 | 0.00 | 0.00 | 79 | 1015.7 |
| 20260506040549 | 42 | 140 | 2.0 | 8.0 | 0.00 | 0.00 | 0.00 | 79 | 1015.6 |
| 20260506035548 | 42 | 85 | 2.0 | 8.0 | 0.00 | 0.00 | 0.00 | 78 | 1015.8 |
| 20260506035048 | 42 | 124 | 2.0 | 8.0 | 0.00 | 0.00 | 0.00 | 78 | 1015.6 |
| 20260506034605 | 42 | 105 | 3.0 | 8.0 | 0.00 | 0.00 | 0.00 | 78 | 1015.4 |
| 20260506034047 | 42 | 31 | 3.0 | 9.0 | 0.00 | 0.00 | 0.00 | 77 | 1015.6 |
| 20260506033547 | 42 | 87 | 2.0 | 9.0 | 0.00 | 0.00 | 0.00 | 77 | 1015.5 |
| 20260506033053 | 42 | 50 | 3.0 | 14.0 | 0.00 | 0.00 | 0.00 | 76 | 1015.3 |
| 20260506032548 | 42 | 66 | 5.0 | 17.0 | 0.00 | 0.00 | 0.00 | 76 | 1014.9 |
| 20260506032048 | 42 | 71 | 7.0 | 17.0 | 0.00 | 0.00 | 0.00 | 75 | 1014.5 |
| 20260506031601 | 42 | 87 | 7.0 | 14.0 | 0.00 | 0.00 | 0.00 | 75 | 1014.3 |
| 20260506031050 | 42 | 87 | 6.0 | 14.0 | 0.00 | 0.00 | 0.00 | 74 | 1014.3 |
| 20260506030544 | 42 | 328 | 6.0 | 14.0 | 0.00 | 0.00 | 0.00 | 74 | 1014.3 |
| 20260506030054 | 42 | 90 | 3.0 | 10.0 | 0.00 | 0.00 | 0.00 | 74 | 1014.4 |
| 20260506025547 | 42 | 99 | 4.0 | 10.0 | 0.00 | 0.00 | 0.00 | 74 | 1014.4 |
| 20260506025047 | 42 | 67 | 3.0 | 10.0 | 0.00 | 0.00 | 0.00 | 74 | 1014.5 |
| 20260506024624 | 42 | 122 | 2.0 | 11.0 | 0.00 | 0.00 | 0.00 | 74 | 1014.4 |
| 20260506024047 | 42 | 98 | 4.0 | 12.0 | 0.00 | 0.00 | 0.00 | 74 | 1014.4 |
| 20260506023549 | 43 | 26 | 4.0 | 12.0 | 0.00 | 0.00 | 0.00 | 74 | 1014.3 |
| 20260506023054 | 43 | 30 | 3.0 | 11.0 | 0.00 | 0.00 | 0.00 | 74 | 1014.2 |
| 20260506022548 | 43 | 88 | 3.0 | 11.0 | 0.00 | 0.00 | 0.00 | 74 | 1014.2 |
| 20260506022048 | 43 | 140 | 3.0 | 11.0 | 0.00 | 0.00 | 0.00 | 75 | 1014.3 |
| 20260506021600 | 43 | 56 | 3.0 | 10.0 | 0.00 | 0.00 | 0.00 | 75 | 1014.3 |
| 20260506021047 | 43 | 88 | 4.0 | 12.0 | 0.00 | 0.00 | 0.00 | 75 | 1014.1 |
| 20260506020548 | 43 | 49 | 4.0 | 12.0 | 0.00 | 0.00 | 0.00 | 75 | 1014.0 |
| 20260506020055 | 43 | 6 | 4.0 | 11.0 | 0.00 | 0.00 | 0.00 | 74 | 1014.0 |
| 20260506015548 | 43 | 70 | 3.0 | 10.0 | 0.00 | 0.00 | 0.00 | 74 | 1014.0 |
| 20260506015047 | 44 | 61 | 6.0 | 16.0 | 0.00 | 0.00 | 0.00 | 73 | 1014.1 |
| 20260506014553 | 44 | 38 | 6.0 | 16.0 | 0.00 | 0.00 | 0.00 | 73 | 1014.1 |
| 20260506014050 | 44 | 36 | 6.0 | 13.0 | 0.00 | 0.00 | 0.00 | 72 | 1014.1 |
| 20260506013548 | 45 | 35 | 5.0 | 11.0 | 0.00 | 0.00 | 0.00 | 71 | 1013.9 |
| 20260506013055 | 45 | 32 | 3.0 | 10.0 | 0.00 | 0.00 | 0.00 | 70 | 1013.9 |
| 20260506012547 | 45 | 23 | 4.0 | 10.0 | 0.00 | 0.00 | 0.00 | 69 | 1013.9 |
| 20260506012048 | 45 | 49 | 2.0 | 10.0 | 0.00 | 0.00 | 0.00 | 68 | 1013.9 |
| 20260506011558 | 45 | 63 | 2.0 | 10.0 | 0.00 | 0.00 | 0.00 | 68 | 1013.8 |
| 20260506011048 | 45 | 108 | 5.0 | 11.0 | 0.00 | 0.00 | 0.00 | 68 | 1013.9 |
| 20260506010548 | 45 | 20 | 4.0 | 13.0 | 0.00 | 0.00 | 0.00 | 68 | 1013.9 |
| 20260506010058 | 45 | 35 | 5.0 | 13.0 | 0.00 | 0.00 | 0.00 | 68 | 1013.8 |
| 20260506005547 | 46 | 84 | 3.0 | 15.0 | 0.00 | 0.00 | 0.00 | 68 | 1013.3 |
| 20260506005051 | 46 | 61 | 6.0 | 15.0 | 0.00 | 0.00 | 0.00 | 67 | 1013.4 |
| 20260506004553 | 46 | 43 | 3.0 | 14.0 | 0.00 | 0.00 | 0.00 | 67 | 1013.3 |
| 20260506004048 | 46 | 44 | 6.0 | 14.0 | 0.00 | 0.00 | 0.00 | 67 | 1013.3 |
| 20260506003547 | 46 | 19 | 5.0 | 11.0 | 0.00 | 0.00 | 0.00 | 66 | 1013.4 |
| 20260506003052 | 47 | 15 | 4.0 | 11.0 | 0.00 | 0.00 | 0.00 | 66 | 1013.4 |
| 20260506002546 | 47 | 52 | 5.0 | 11.0 | 0.00 | 0.00 | 0.00 | 65 | 1013.5 |
| 20260506002047 | 47 | 15 | 4.0 | 12.0 | 0.00 | 0.00 | 0.00 | 64 | 1013.6 |
| 20260506001554 | 47 | 44 | 4.0 | 12.0 | 0.00 | 0.00 | 0.00 | 63 | 1013.7 |
| 20260506001048 | 47 | 84 | 5.0 | 12.0 | 0.00 | 0.00 | 0.00 | 62 | 1013.7 |
| 20260506000547 | 47 | 25 | 5.0 | 12.0 | 0.00 | 0.00 | 0.00 | 63 | 1013.7 |
| 20260506000052 | 48 | 41 | 5.0 | 14.0 | 0.00 | 0.00 | 0.00 | 62 | 1013.6 |
| 20260505235547 | 48 | 62 | 5.0 | 14.0 | 0.00 | 0.00 | 0.00 | 62 | 1013.3 |
| 20260505235047 | 48 | 44 | 7.0 | 14.0 | 0.00 | 0.00 | 0.00 | 62 | 1013.4 |
| 20260505234600 | 48 | 77 | 4.0 | 16.0 | 0.00 | 0.00 | 0.00 | 62 | 1013.4 |
| 20260505234047 | 48 | 56 | 7.0 | 16.0 | 0.00 | 0.00 | 0.00 | 62 | 1013.5 |
| 20260505233546 | 48 | 46 | 6.0 | 17.0 | 0.00 | 0.00 | 0.00 | 62 | 1013.5 |
| 20260505233102 | 48 | 39 | 6.0 | 17.0 | 0.00 | 0.00 | 0.00 | 62 | 1013.6 |
| 20260505232546 | 48 | 54 | 6.0 | 17.0 | 0.00 | 0.00 | 0.00 | 62 | 1013.7 |
| 20260505232049 | 48 | 12 | 7.0 | 16.0 | 0.00 | 0.00 | 0.00 | 61 | 1013.5 |
| 20260505231554 | 49 | 21 | 4.0 | 16.0 | 0.00 | 0.00 | 0.00 | 62 | 1013.2 |
| 20260505231045 | 49 | 20 | 7.0 | 16.0 | 0.00 | 0.00 | 0.00 | 61 | 1013.1 |
| 20260505230548 | 49 | 37 | 6.0 | 19.0 | 0.00 | 0.00 | 0.00 | 61 | 1013.0 |
| 20260505230052 | 49 | 56 | 7.0 | 19.0 | 0.00 | 0.00 | 0.00 | 61 | 1013.1 |
| 20260505225550 | 49 | 39 | 7.0 | 15.0 | 0.00 | 0.00 | 0.00 | 61 | 1012.9 |
| 20260505225046 | 49 | 34 | 7.0 | 15.0 | 0.00 | 0.00 | 0.00 | 61 | 1012.9 |
| 20260505224555 | 50 | 13 | 6.0 | 13.0 | 0.00 | 0.00 | 0.00 | 61 | 1012.9 |
| 20260505224045 | 50 | 27 | 7.0 | 13.0 | 0.00 | 0.00 | 0.00 | 60 | 1012.6 |
| 20260505223544 | 50 | 36 | 5.0 | 13.0 | 0.00 | 0.00 | 0.00 | 59 | 1012.4 |
| 20260505223055 | 51 | 49 | 6.0 | 12.0 | 0.00 | 0.00 | 0.00 | 58 | 1012.5 |
| 20260505222548 | 51 | 115 | 3.0 | 11.0 | 0.00 | 0.00 | 0.00 | 56 | 1012.5 |
| 20260505222044 | 51 | 72 | 4.0 | 11.0 | 0.00 | 0.00 | 0.00 | 56 | 1012.4 |
| 20260505221553 | 51 | 106 | 2.0 | 10.0 | 0.00 | 0.00 | 0.00 | 56 | 1012.5 |
| 20260505221046 | 51 | 74 | 2.0 | 13.0 | 0.00 | 0.00 | 0.00 | 56 | 1012.5 |
| 20260505220548 | 52 | 45 | 4.0 | 13.0 | 0.00 | 0.00 | 0.00 | 56 | 1012.5 |
| 20260505220053 | 52 | 94 | 2.0 | 13.0 | 0.00 | 0.00 | 0.00 | 56 | 1012.4 |
| 20260505215549 | 52 | 74 | 4.0 | 12.0 | 0.00 | 0.00 | 0.00 | 56 | 1012.3 |
| 20260505215048 | 52 | 273 | 4.0 | 12.0 | 0.00 | 0.00 | 0.00 | 55 | 1012.3 |
| 20260505214558 | 52 | 130 | 5.0 | 12.0 | 0.00 | 0.00 | 0.00 | 54 | 1012.3 |
| 20260505214049 | 52 | 51 | 4.0 | 13.0 | 0.00 | 0.00 | 0.00 | 55 | 1012.4 |
| 20260505213547 | 52 | 48 | 4.0 | 15.0 | 0.00 | 0.00 | 0.00 | 55 | 1012.4 |
| 20260505213053 | 52 | 351 | 7.0 | 15.0 | 0.00 | 0.00 | 0.00 | 54 | 1012.2 |
| 20260505212547 | 53 | 56 | 5.0 | 17.0 | 0.00 | 0.00 | 0.00 | 54 | 1012.4 |
| 20260505212045 | 53 | 357 | 7.0 | 20.0 | 0.00 | 0.00 | 0.00 | 53 | 1012.5 |
| 20260505211606 | 53 | 87 | 6.0 | 20.0 | 0.00 | 0.00 | 0.00 | 54 | 1012.3 |
| 20260505211051 | 53 | 89 | 5.0 | 14.0 | 0.00 | 0.00 | 0.00 | 53 | 1012.2 |
| 20260505210544 | 53 | 30 | 5.0 | 14.0 | 0.00 | 0.00 | 0.00 | 53 | 1012.5 |
| 20260505210049 | 53 | 75 | 2.0 | 16.0 | 0.00 | 0.00 | 0.00 | 53 | 1012.5 |
| 20260505205547 | 53 | 58 | 6.0 | 16.0 | 0.00 | 0.00 | 0.00 | 53 | 1012.7 |
| 20260505205049 | 53 | 72 | 6.0 | 16.0 | 0.00 | 0.00 | 0.00 | 52 | 1012.7 |
| 20260505204601 | 53 | 66 | 8.0 | 16.0 | 0.00 | 0.00 | 0.00 | 52 | 1012.7 |
| 20260505204048 | 53 | 51 | 5.0 | 12.0 | 0.00 | 0.00 | 0.00 | 52 | 1012.8 |
| 20260505203550 | 54 | 82 | 6.0 | 12.0 | 0.00 | 0.00 | 0.00 | 52 | 1012.8 |
| 20260505203058 | 54 | 46 | 4.0 | 15.0 | 0.00 | 0.00 | 0.00 | 52 | 1012.7 |
| 20260505202608 | 54 | 57 | 6.0 | 18.0 | 0.00 | 0.00 | 0.00 | 52 | 1012.7 |
| 20260505202052 | 54 | 79 | 4.0 | 18.0 | 0.00 | 0.00 | 0.00 | 53 | 1012.8 |
| 20260505201601 | 54 | 69 | 5.0 | 18.0 | 0.00 | 0.00 | 0.00 | 52 | 1012.9 |
| 20260505201048 | 54 | 23 | 4.0 | 15.0 | 0.00 | 0.00 | 0.00 | 52 | 1012.7 |
| 20260505200549 | 54 | 98 | 4.0 | 15.0 | 0.00 | 0.00 | 0.00 | 53 | 1012.7 |
| 20260505200103 | 54 | 23 | 7.0 | 14.0 | 0.00 | 0.00 | 0.00 | 52 | 1012.7 |
| 20260505195548 | 54 | 41 | 5.0 | 12.0 | 0.00 | 0.00 | 0.00 | 52 | 1013.0 |
| 20260505195047 | 54 | 49 | 6.0 | 18.0 | 0.00 | 0.00 | 0.00 | 51 | 1013.0 |
| 20260505194607 | 55 | 54 | 6.0 | 18.0 | 0.00 | 0.00 | 0.00 | 51 | 1013.1 |
| 20260505194050 | 55 | 18 | 6.0 | 18.0 | 0.00 | 0.00 | 0.00 | 50 | 1013.0 |
| 20260505193548 | 55 | 0 | 5.0 | 14.0 | 0.00 | 0.00 | 0.00 | 52 | 1012.9 |
| 20260505193052 | 55 | 55 | 5.0 | 14.0 | 0.00 | 0.00 | 0.00 | 52 | 1012.9 |
| 20260505192549 | 55 | 79 | 5.0 | 13.0 | 0.00 | 0.00 | 0.00 | 52 | 1012.9 |
| 20260505192050 | 55 | 52 | 6.0 | 13.0 | 0.00 | 0.00 | 0.00 | 51 | 1013.1 |
| 20260505191550 | 55 | 53 | 6.0 | 13.0 | 0.00 | 0.00 | 0.00 | 51 | 1013.1 |
| 20260505191049 | 55 | 83 | 4.0 | 12.0 | 0.00 | 0.00 | 0.00 | 52 | 1013.0 |
| 20260505190549 | 55 | 47 | 4.0 | 12.0 | 0.00 | 0.00 | 0.00 | 52 | 1013.0 |
| 20260505190055 | 55 | 63 | 4.0 | 21.0 | 0.00 | 0.00 | 0.00 | 52 | 1013.0 |
| 20260505185550 | 54 | 1 | 6.0 | 21.0 | 0.00 | 0.00 | 0.00 | 52 | 1013.2 |
| 20260505185048 | 54 | 84 | 6.0 | 17.0 | 0.00 | 0.00 | 0.00 | 51 | 1013.2 |
| 20260505184554 | 55 | 16 | 5.0 | 18.0 | 0.00 | 0.00 | 0.00 | 52 | 1013.4 |
| 20260505184051 | 55 | 64 | 8.0 | 18.0 | 0.00 | 0.00 | 0.00 | 51 | 1013.0 |
| 20260505183549 | 55 | 114 | 9.0 | 18.0 | 0.00 | 0.00 | 0.00 | 51 | 1013.0 |
| 20260505183051 | 55 | 63 | 7.0 | 16.0 | 0.00 | 0.00 | 0.00 | 51 | 1012.9 |
| 20260505182548 | 55 | 79 | 6.0 | 16.0 | 0.00 | 0.00 | 0.00 | 51 | 1012.9 |
| 20260505182048 | 55 | 139 | 8.0 | 20.0 | 0.00 | 0.00 | 0.00 | 52 | 1012.9 |
| 20260505181556 | 55 | 112 | 7.0 | 20.0 | 0.00 | 0.00 | 0.00 | 53 | 1012.9 |
| 20260505181050 | 54 | 271 | 7.0 | 22.0 | 0.00 | 0.00 | 0.00 | 52 | 1012.9 |
| 20260505180548 | 54 | 35 | 9.0 | 22.0 | 0.00 | 0.00 | 0.00 | 52 | 1013.2 |
| 20260505180054 | 54 | 0 | 6.0 | 16.0 | 0.00 | 0.00 | 0.00 | 52 | 1013.3 |
| 20260505175552 | 54 | 26 | 7.0 | 15.0 | 0.00 | 0.00 | 0.00 | 52 | 1013.3 |
| 20260505175048 | 54 | 49 | 7.0 | 15.0 | 0.00 | 0.00 | 0.00 | 53 | 1013.3 |
| 20260505174557 | 54 | 45 | 6.0 | 15.0 | 0.00 | 0.00 | 0.00 | 53 | 1013.2 |
| 20260505174049 | 53 | 46 | 7.0 | 18.0 | 0.00 | 0.00 | 0.00 | 54 | 1013.3 |
| 20260505173549 | 53 | 63 | 5.0 | 19.0 | 0.00 | 0.00 | 0.00 | 55 | 1013.5 |
| 20260505173053 | 52 | 68 | 8.0 | 19.0 | 0.00 | 0.00 | 0.00 | 54 | 1013.5 |
| 20260505172548 | 52 | 89 | 9.0 | 19.0 | 0.00 | 0.00 | 0.00 | 55 | 1013.5 |
| 20260505172048 | 52 | 141 | 9.0 | 16.0 | 0.00 | 0.00 | 0.00 | 55 | 1013.5 |
| 20260505171554 | 52 | 62 | 7.0 | 13.0 | 0.00 | 0.00 | 0.00 | 55 | 1013.8 |
| 20260505171049 | 51 | 51 | 5.0 | 14.0 | 0.00 | 0.00 | 0.00 | 55 | 1013.8 |
| 20260505170547 | 52 | 75 | 6.0 | 14.0 | 0.00 | 0.00 | 0.00 | 55 | 1013.8 |
| 20260505170059 | 52 | 65 | 6.0 | 17.0 | 0.00 | 0.00 | 0.00 | 55 | 1013.9 |
| 20260505165548 | 52 | 44 | 5.0 | 17.0 | 0.00 | 0.00 | 0.00 | 55 | 1013.9 |
| 20260505165048 | 52 | 84 | 7.0 | 17.0 | 0.00 | 0.00 | 0.00 | 54 | 1013.8 |
| 20260505164622 | 52 | 15 | 6.0 | 17.0 | 0.00 | 0.00 | 0.00 | 55 | 1013.9 |
| 20260505164050 | 52 | 1 | 6.0 | 20.0 | 0.00 | 0.00 | 0.00 | 54 | 1013.8 |
| 20260505163548 | 52 | 32 | 6.0 | 20.0 | 0.00 | 0.00 | 0.00 | 54 | 1013.6 |
| 20260505163102 | 52 | 73 | 6.0 | 13.0 | 0.00 | 0.00 | 0.00 | 55 | 1013.5 |
| 20260505162547 | 52 | 31 | 6.0 | 15.0 | 0.00 | 0.00 | 0.00 | 54 | 1013.4 |
| 20260505162048 | 51 | 57 | 8.0 | 17.0 | 0.00 | 0.00 | 0.00 | 54 | 1013.4 |
| 20260505161613 | 51 | 48 | 7.0 | 17.0 | 0.00 | 0.00 | 0.00 | 54 | 1013.4 |
| 20260505161048 | 52 | 41 | 7.0 | 15.0 | 0.00 | 0.00 | 0.00 | 54 | 1013.5 |
| 20260505160549 | 51 | 34 | 5.0 | 18.0 | 0.00 | 0.00 | 0.00 | 56 | 1013.4 |
| 20260505153107 | 51 | 65 | 5.0 | 17.0 | 0.00 | 0.00 | 0.00 | 56 | 1013.5 |
| 20260505152547 | 51 | 43 | 7.0 | 17.0 | 0.00 | 0.00 | 0.00 | 56 | 1013.5 |
| 20260505152048 | 51 | 79 | 7.0 | 16.0 | 0.00 | 0.00 | 0.00 | 54 | 1013.4 |
| 20260505151558 | 51 | 26 | 5.0 | 16.0 | 0.00 | 0.00 | 0.00 | 56 | 1013.2 |
| 20260505151048 | 50 | 307 | 4.0 | 18.0 | 0.00 | 0.00 | 0.00 | 57 | 1013.3 |
| 20260505150548 | 50 | 6 | 5.0 | 18.0 | 0.00 | 0.00 | 0.00 | 56 | 1013.3 |
| 20260505140544 | 49 | 77 | 7.0 | 16.0 | 0.00 | 0.00 | 0.00 | 56 | 1012.9 |
| 20260505130113 | 48 | 34 | 6.0 | 19.0 | 0.00 | 0.00 | 0.00 | 58 | 1011.5 |
| 20260505124612 | 48 | 1 | 4.0 | 17.0 | 0.00 | 0.00 | 0.00 | 59 | 1011.1 |
| 20260505124044 | 48 | 117 | 7.0 | 17.0 | 0.00 | 0.00 | 0.00 | 58 | 1010.9 |
| 20260505123546 | 48 | 69 | 7.0 | 20.0 | 0.00 | 0.00 | 0.00 | 58 | 1010.9 |
| 20260505123110 | 48 | 42 | 6.0 | 20.0 | 0.00 | 0.00 | 0.00 | 59 | 1010.8 |
| 20260505122545 | 48 | 30 | 8.0 | 18.0 | 0.00 | 0.00 | 0.00 | 59 | 1010.7 |
| 20260505122045 | 48 | 34 | 6.0 | 18.0 | 0.00 | 0.00 | 0.00 | 60 | 1010.6 |
| 20260505121555 | 48 | 34 | 4.0 | 19.0 | 0.00 | 0.00 | 0.00 | 60 | 1010.3 |
| 20260505121049 | 48 | 47 | 6.0 | 19.0 | 0.00 | 0.00 | 0.00 | 60 | 1010.1 |
| 20260505120549 | 48 | 39 | 7.0 | 17.0 | 0.00 | 0.00 | 0.00 | 60 | 1009.9 |
| 20260505120123 | 48 | 45 | 5.0 | 20.0 | 0.00 | 0.00 | 0.00 | 59 | 1009.8 |
| 20260505115545 | 48 | 113 | 7.0 | 20.0 | 0.00 | 0.00 | 0.00 | 59 | 1009.8 |
| 20260505115048 | 48 | 68 | 7.0 | 20.0 | 0.00 | 0.00 | 0.00 | 59 | 1009.6 |
| 20260505114601 | 48 | 65 | 6.0 | 14.0 | 0.00 | 0.00 | 0.00 | 59 | 1009.5 |
| 20260505114048 | 48 | 1 | 6.0 | 17.0 | 0.00 | 0.00 | 0.00 | 58 | 1009.4 |
| 20260505113548 | 48 | 69 | 8.0 | 20.0 | 0.00 | 0.00 | 0.00 | 58 | 1009.2 |
| 20260505113105 | 48 | 31 | 8.0 | 21.0 | 0.00 | 0.00 | 0.00 | 58 | 1009.1 |
| 20260505112552 | 48 | 63 | 9.0 | 23.0 | 0.00 | 0.00 | 0.00 | 58 | 1009.2 |
| 20260505112047 | 48 | 25 | 6.0 | 25.0 | 0.00 | 0.00 | 0.00 | 57 | 1009.1 |
| 20260505111553 | 49 | 65 | 9.0 | 25.0 | 0.00 | 0.00 | 0.00 | 57 | 1009.2 |
| 20260505111047 | 49 | 23 | 11.0 | 25.0 | 0.00 | 0.00 | 0.00 | 57 | 1009.1 |
| 20260505110548 | 49 | 28 | 8.0 | 21.0 | 0.00 | 0.00 | 0.00 | 57 | 1009.1 |
| 20260505110120 | 49 | 34 | 11.0 | 21.0 | 0.00 | 0.00 | 0.00 | 57 | 1009.1 |
| 20260505102048 | 49 | 41 | 16.0 | 30.0 | 0.00 | 0.00 | 0.00 | 56 | 1008.5 |
| 20260505101601 | 49 | 39 | 16.0 | 30.0 | 0.00 | 0.00 | 0.00 | 56 | 1008.4 |
| 20260505101052 | 50 | 58 | 16.0 | 25.0 | 0.00 | 0.00 | 0.00 | 56 | 1008.5 |
| 20260505100547 | 50 | 46 | 14.0 | 24.0 | 0.00 | 0.00 | 0.00 | 56 | 1008.6 |
| 20260505100056 | 50 | 7 | 14.0 | 24.0 | 0.00 | 0.00 | 0.00 | 56 | 1008.5 |
| 20260505095545 | 50 | 23 | 14.0 | 23.0 | 0.00 | 0.00 | 0.00 | 55 | 1008.4 |
| 20260505095047 | 50 | 63 | 13.0 | 22.0 | 0.00 | 0.00 | 0.00 | 55 | 1008.5 |
| 20260505094556 | 51 | 47 | 13.0 | 22.0 | 0.00 | 0.00 | 0.00 | 55 | 1008.3 |
| 20260505094048 | 51 | 7 | 12.0 | 26.0 | 0.00 | 0.00 | 0.00 | 56 | 1008.3 |
| 20260505093548 | 51 | 43 | 15.0 | 26.0 | 0.00 | 0.00 | 0.00 | 55 | 1008.1 |
| 20260505093107 | 51 | 29 | 15.0 | 26.0 | 0.00 | 0.00 | 0.00 | 55 | 1007.9 |
| 20260505092544 | 51 | 40 | 14.0 | 31.0 | 0.00 | 0.00 | 0.00 | 55 | 1008.0 |
| 20260505092047 | 51 | 56 | 13.0 | 31.0 | 0.00 | 0.00 | 0.00 | 54 | 1008.0 |
| 20260505091554 | 52 | 49 | 15.0 | 31.0 | 0.00 | 0.00 | 0.00 | 54 | 1007.8 |
| 20260505091048 | 52 | 9 | 14.0 | 25.0 | 0.00 | 0.00 | 0.00 | 54 | 1007.6 |
| 20260505090547 | 52 | 36 | 14.0 | 25.0 | 0.00 | 0.00 | 0.00 | 53 | 1007.4 |
| 20260505090056 | 52 | 30 | 12.0 | 23.0 | 0.00 | 0.00 | 0.00 | 53 | 1007.4 |
| 20260505085548 | 52 | 68 | 13.0 | 22.0 | 0.00 | 0.00 | 0.00 | 52 | 1007.1 |
| 20260505085049 | 52 | 31 | 12.0 | 27.0 | 0.00 | 0.00 | 0.00 | 52 | 1006.9 |
| 20260505084551 | 52 | 61 | 11.0 | 27.0 | 0.00 | 0.00 | 0.00 | 52 | 1006.8 |
| 20260505084048 | 52 | 24 | 12.0 | 22.0 | 0.00 | 0.00 | 0.00 | 52 | 1006.7 |
| 20260505083548 | 52 | 32 | 9.0 | 25.0 | 0.00 | 0.00 | 0.00 | 52 | 1006.6 |
| 20260505083049 | 52 | 57 | 12.0 | 26.0 | 0.00 | 0.00 | 0.00 | 53 | 1006.6 |
| 20260505082548 | 52 | 350 | 13.0 | 26.0 | 0.00 | 0.00 | 0.00 | 53 | 1006.5 |
| 20260505082048 | 52 | 6 | 12.0 | 25.0 | 0.00 | 0.00 | 0.00 | 53 | 1006.3 |
| 20260505081603 | 52 | 11 | 11.0 | 23.0 | 0.00 | 0.00 | 0.00 | 54 | 1006.0 |
| 20260505081045 | 52 | 57 | 11.0 | 22.0 | 0.00 | 0.00 | 0.00 | 54 | 1006.0 |
| 20260505080546 | 52 | 65 | 12.0 | 21.0 | 0.00 | 0.00 | 0.00 | 54 | 1005.9 |
| 20260505080107 | 52 | 349 | 9.0 | 20.0 | 0.00 | 0.00 | 0.00 | 54 | 1005.8 |
| 20260505075551 | 52 | 29 | 12.0 | 23.0 | 0.00 | 0.00 | 0.00 | 53 | 1005.8 |
| 20260505075048 | 52 | 52 | 12.0 | 23.0 | 0.00 | 0.00 | 0.00 | 53 | 1005.7 |
| 20260505074559 | 53 | 59 | 10.0 | 23.0 | 0.00 | 0.00 | 0.00 | 52 | 1005.7 |
| 20260505074047 | 53 | 51 | 12.0 | 27.0 | 0.00 | 0.00 | 0.00 | 51 | 1005.6 |
| 20260505073547 | 53 | 63 | 13.0 | 27.0 | 0.00 | 0.00 | 0.00 | 52 | 1005.6 |
| 20260505073058 | 54 | 56 | 13.0 | 30.0 | 0.00 | 0.00 | 0.00 | 52 | 1005.5 |
| 20260505072547 | 54 | 42 | 13.0 | 30.0 | 0.00 | 0.00 | 0.00 | 52 | 1005.2 |
| 20260505072051 | 55 | 53 | 15.0 | 23.0 | 0.00 | 0.00 | 0.00 | 52 | 1005.1 |
| 20260505071610 | 55 | 41 | 11.0 | 21.0 | 0.00 | 0.00 | 0.00 | 52 | 1005.1 |
| 20260505071047 | 56 | 82 | 10.0 | 21.0 | 0.00 | 0.00 | 0.00 | 51 | 1005.0 |
| 20260505070549 | 56 | 13 | 12.0 | 21.0 | 0.00 | 0.00 | 0.00 | 51 | 1004.9 |
| 20260505070110 | 56 | 57 | 9.0 | 22.0 | 0.00 | 0.00 | 0.00 | 51 | 1005.0 |